Home > Time Zones > World Clock > Weather > Belgium > Spa > Past weeks

Flag for Belgium Weather past 2 weeks in Spa, Belgium

Now
63 °F

Mild.


Feels Like: 63 °F
Forecast: 64 / 83 °F
Wind: 1 mph from North

Location: Elsenborn

Current Time: Aug 31, 2015 at 12:56:47 AM

Latest Report: Aug 30, 2015 at 11:55 PM


Visibility: N/A

Pressure: 30.07 "Hg

Humidity: 94%

Dew point: 61 °F

Location of SpaLocation

Historic Weather in Spa — Graph

°F

Spa temperature yesterday

Maximum temperature yesterday: 84 °F (at 2:55 PM)
Minimum temperature yesterday: 57 °F (at 2:25 AM)
Average temperature yesterday: 70 °F

Past Weeks' High & Low Weather Summary

 TemperatureHumidityPressure
High84 °F (Aug 30, 2:55 PM)100% (Aug 18, 11:03 PM)30.36 "Hg (Aug 18, 11:03 PM)
Low36 °F (Aug 19, 4:55 AM)38% (Aug 23, 12:55 PM)29.59 "Hg (Aug 24, 12:55 PM)
Average59 °F79%30.03 "Hg
* Reported Aug 18 7:30 AM — Aug 30 11:25 PM, Spa, Weather by CustomWeather, © 2015

Note: Actual official high and low records may vary slightly from our data, if they occured in-between our weather recording intervals... More about our weather records

Advertising

Spa weather history for previous 24 hours

 ConditionsComfort  
Time TempWeatherWind HumidityBarometerVisibility
11:25 PM
Sun, Aug 30
64 °FMild.2 mph94%30.07 "HgN/A
10:55 PM64 °FMild.2 mph94%30.07 "HgN/A
10:25 PM66 °FMild.2 mph94%30.07 "HgN/A
9:55 PM66 °FPassing clouds.3 mph100%30.09 "HgN/A
9:25 PM68 °FPassing clouds.3 mph94%30.09 "HgN/A
8:55 PM68 °FPassing clouds.2 mph94%30.09 "HgN/A
8:25 PM72 °FMild.1 mph83%30.09 "HgN/A
7:55 PM75 °FPartly sunny.3 mph74%30.09 "HgN/A
7:25 PM79 °FScattered clouds.2 mph70%30.09 "HgN/A
6:55 PM81 °FScattered clouds.2 mph58%30.09 "HgN/A
6:25 PM81 °FWarm.3 mph58%30.09 "HgN/A
5:55 PM82 °FWarm.5 mph55%30.09 "HgN/A
5:25 PM82 °FWarm.5 mph58%30.09 "HgN/A
4:55 PM84 °FWarm.8 mph48%30.09 "HgN/A
4:25 PM82 °FWarm.8 mph55%30.09 "HgN/A
3:55 PM84 °FWarm.7 mph51%30.09 "HgN/A
3:25 PM84 °FWarm.9 mph48%30.09 "HgN/A
2:55 PM84 °FWarm.9 mph48%30.09 "HgN/A
2:25 PM82 °FWarm.9 mph55%30.09 "HgN/A
1:55 PM82 °FWarm.9 mph58%30.09 "HgN/A
1:25 PM82 °FWarm.9 mph58%30.09 "HgN/A
12:55 PM81 °FWarm.8 mph62%30.12 "HgN/A
12:25 PM79 °FWarm.8 mph65%30.12 "HgN/A
11:55 AM79 °FWarm.8 mph61%30.12 "HgN/A
11:25 AM77 °FWarm.6 mph65%30.12 "HgN/A
10:55 AM77 °FWarm.7 mph65%30.12 "HgN/A
10:25 AM75 °FMild.8 mph65%30.12 "HgN/A
9:55 AM75 °FMild.7 mph65%30.09 "HgN/A
9:25 AM73 °FMild.6 mph69%30.09 "HgN/A
8:55 AM72 °FMild.3 mph78%30.12 "HgN/A
8:25 AM66 °FMild.3 mph88%30.12 "HgN/A
7:55 AM64 °FMild.1 mph94%30.09 "HgN/A
7:25 AM61 °FCool.2 mph100%30.12 "Hg3 mi
7:03 AM61 °FCool.2 mph94%30.12 "Hg3 mi
6:55 AM61 °FCool.3 mph100%30.09 "HgN/A
5:55 AM57 °FCool.2 mph100%30.09 "HgN/A
5:25 AM61 °FCool.3 mph100%30.09 "HgN/A
4:55 AM57 °FCool.2 mph100%30.09 "HgN/A
4:25 AM57 °FCool.2 mph94%30.09 "HgN/A
3:55 AM57 °FCool.1 mph94%30.12 "HgN/A
3:25 AM57 °FCool.1 mph100%30.12 "HgN/A
2:55 AM59 °FFog.1 mph94%30.12 "Hg0 mi
2:25 AM57 °FFog.1 mph100%30.12 "Hg6 mi
1:55 AM59 °FFog.1 mph100%30.15 "Hg2 mi
1:25 AM59 °FFog.1 mph100%30.15 "Hg2 mi
1:03 AM61 °FFog.1 mph100%30.15 "Hg1 mi
12:55 AM61 °FFog.1 mph100%30.15 "Hg2 mi
12:25 AM63 °FPassing clouds.2 mph94%30.15 "Hg2 mi
Weather by CustomWeather, © 2015

See weather overviewHow to use our weather pages